User: anonymous   Login
Location: Unspecified
(0.0000°N, 0.0000°E)
Time: 22:16:33
(UTC+02:00)
Language:

SJ-6B - Orbit

View from above orbital plane
View from above orbital plane
View from above satellite
View from above satellite

Ground track
Ground track

The orbit data is extracted from the following two-line orbital elements,

1 28415U 04035C   15211.38385777  .00001552  00000-0  11138-3 0  9990
2 28415 097.7947 224.1313 0052794 292.8542 066.7114 15.04795455595087
Epoch (UTC): 30 July 2015 09:12:45
Eccentricity: 0.0052794
inclination: 97.7947°
perigee height: 515 km
apogee height: 589 km
right ascension of ascending node: 224.1313°
argument of perigee: 292.8542°
revolutions per day: 15.04795455
mean anomaly at epoch: 66.7114°
orbit number at epoch: 59508

The dashed part of the orbit path shows where the satellite is in the earth's shadow,  

DLR